TimeCDT,TemperatureF,Dew PointF,Humidity,Sea Level PressureIn,VisibilityMPH,Wind Direction,Wind SpeedMPH,Gust SpeedMPH,PrecipitationIn,Events,Conditions,WindDirDegrees,DateUTC
12:15 AM,82.4,71.6,70,29.95,10.0,South,8.1,-,N/A,,Clear,180,2013-07-23 05:15:00
12:35 AM,82.4,71.6,70,29.96,10.0,South,4.6,-,N/A,,Clear,190,2013-07-23 05:35:00
12:55 AM,80.6,71.6,74,29.96,10.0,South,5.8,-,N/A,,Clear,190,2013-07-23 05:55:00
1:15 AM,80.6,71.6,74,29.96,10.0,SSW,3.5,-,N/A,,Clear,200,2013-07-23 06:15:00
1:35 AM,80.6,69.8,70,29.96,10.0,SSW,4.6,-,N/A,,Clear,210,2013-07-23 06:35:00
1:55 AM,80.6,69.8,70,29.96,10.0,SSW,8.1,-,N/A,,Clear,200,2013-07-23 06:55:00
2:15 AM,78.8,69.8,74,29.96,10.0,South,6.9,-,N/A,,Clear,190,2013-07-23 07:15:00
2:35 AM,78.8,69.8,74,29.96,10.0,South,5.8,-,N/A,,Clear,190,2013-07-23 07:35:00
2:55 AM,78.8,69.8,74,29.96,10.0,SSW,4.6,-,N/A,,Clear,200,2013-07-23 07:55:00
3:15 AM,77.0,69.8,78,29.96,10.0,Calm,Calm,-,N/A,,Clear,0,2013-07-23 08:15:00
3:35 AM,77.0,69.8,78,29.97,10.0,Calm,Calm,-,N/A,,Clear,0,2013-07-23 08:35:00
3:55 AM,77.0,71.6,83,29.96,10.0,South,3.5,-,N/A,,Clear,190,2013-07-23 08:55:00
4:15 AM,77.0,71.6,83,29.96,10.0,South,4.6,-,N/A,,Clear,190,2013-07-23 09:15:00
4:35 AM,75.2,71.6,89,29.96,10.0,South,3.5,-,N/A,,Clear,190,2013-07-23 09:35:00
4:55 AM,75.2,71.6,89,29.97,10.0,Calm,Calm,-,N/A,,Clear,0,2013-07-23 09:55:00
5:15 AM,75.2,71.6,89,29.97,10.0,South,3.5,-,N/A,,Mostly Cloudy,190,2013-07-23 10:15:00
5:35 AM,75.2,71.6,89,29.97,10.0,South,3.5,-,N/A,,Overcast,180,2013-07-23 10:35:00
5:55 AM,75.2,71.6,89,29.97,10.0,SSW,3.5,-,N/A,,Overcast,210,2013-07-23 10:55:00
6:15 AM,75.2,71.6,89,29.98,7.0,SSW,3.5,-,N/A,,Overcast,200,2013-07-23 11:15:00
6:35 AM,75.2,71.6,89,29.98,7.0,South,4.6,-,N/A,,Overcast,190,2013-07-23 11:35:00
6:55 AM,75.2,71.6,89,29.98,7.0,South,4.6,-,N/A,,Overcast,190,2013-07-23 11:55:00
7:15 AM,75.2,73.4,94,29.98,7.0,South,5.8,-,N/A,,Overcast,190,2013-07-23 12:15:00
7:35 AM,77.0,73.4,89,29.98,7.0,South,4.6,-,N/A,,Overcast,190,2013-07-23 12:35:00
7:55 AM,77.0,73.4,89,29.99,7.0,SSW,4.6,-,N/A,,Overcast,200,2013-07-23 12:55:00
8:15 AM,78.8,73.4,83,29.99,7.0,SSW,4.6,-,N/A,,Overcast,200,2013-07-23 13:15:00
8:35 AM,78.8,73.4,83,30.00,7.0,SW,6.9,-,N/A,,Overcast,220,2013-07-23 13:35:00
8:55 AM,80.6,73.4,79,30.00,5.0,SW,9.2,-,N/A,,Haze,220,2013-07-23 13:55:00
9:15 AM,80.6,71.6,74,30.00,7.0,SW,8.1,-,N/A,,Overcast,220,2013-07-23 14:15:00
9:35 AM,80.6,71.6,74,30.00,7.0,SSW,6.9,16.1,N/A,,Mostly Cloudy,210,2013-07-23 14:35:00
9:55 AM,82.4,71.6,70,30.00,10.0,SSW,9.2,17.3,N/A,,Mostly Cloudy,200,2013-07-23 14:55:00
10:15 AM,82.4,71.6,70,30.00,10.0,WSW,5.8,-,N/A,,Overcast,240,2013-07-23 15:15:00
10:35 AM,82.4,71.6,70,30.00,10.0,SW,5.8,-,N/A,,Overcast,230,2013-07-23 15:35:00
10:55 AM,84.2,71.6,66,30.00,10.0,SSW,5.8,-,N/A,,Mostly Cloudy,200,2013-07-23 15:55:00
11:15 AM,86.0,71.6,62,30.01,10.0,SSW,5.8,-,N/A,,Mostly Cloudy,210,2013-07-23 16:15:00
11:35 AM,86.0,71.6,62,30.00,10.0,South,6.9,-,N/A,,Mostly Cloudy,190,2013-07-23 16:35:00
11:55 AM,87.8,71.6,58,30.00,10.0,SSW,5.8,-,N/A,,Mostly Cloudy,210,2013-07-23 16:55:00
12:15 PM,87.8,71.6,58,30.00,10.0,SSW,6.9,-,N/A,,Mostly Cloudy,200,2013-07-23 17:15:00
12:35 PM,87.8,71.6,58,29.99,10.0,South,10.4,-,N/A,,Scattered Clouds,190,2013-07-23 17:35:00
12:55 PM,87.8,73.4,62,29.98,10.0,South,8.1,-,N/A,,Scattered Clouds,190,2013-07-23 17:55:00
1:15 PM,87.8,73.4,62,29.97,10.0,SSW,10.4,-,N/A,,Scattered Clouds,200,2013-07-23 18:15:00
1:35 PM,87.8,71.6,58,29.97,10.0,South,10.4,-,N/A,,Scattered Clouds,190,2013-07-23 18:35:00
1:55 PM,89.6,73.4,59,29.96,10.0,SSW,6.9,10.4,N/A,,Clear,200,2013-07-23 18:55:00
2:15 PM,89.6,73.4,59,29.96,10.0,South,10.4,18.4,N/A,,Clear,190,2013-07-23 19:15:00
2:35 PM,91.4,73.4,55,29.95,10.0,SSW,8.1,-,N/A,,Clear,200,2013-07-23 19:35:00
3:15 PM,91.4,71.6,52,29.94,10.0,SSW,6.9,-,N/A,,Clear,210,2013-07-23 20:15:00
3:35 PM,91.4,71.6,52,29.93,10.0,SSW,5.8,-,N/A,,Clear,200,2013-07-23 20:35:00
3:55 PM,91.4,71.6,52,29.91,10.0,SSW,8.1,-,N/A,,Clear,200,2013-07-23 20:55:00
4:15 PM,91.4,69.8,49,29.90,10.0,South,10.4,-,N/A,,Clear,190,2013-07-23 21:15:00
4:35 PM,93.2,69.8,46,29.89,10.0,South,6.9,-,N/A,,Clear,190,2013-07-23 21:35:00
4:55 PM,93.2,69.8,46,29.90,10.0,SSW,6.9,-,N/A,,Clear,200,2013-07-23 21:55:00
5:15 PM,93.2,68.0,44,29.90,10.0,SSW,4.6,-,N/A,,Clear,200,2013-07-23 22:15:00
5:35 PM,93.2,66.2,41,29.89,10.0,South,9.2,-,N/A,,Clear,180,2013-07-23 22:35:00
5:55 PM,93.2,62.6,36,29.89,10.0,South,10.4,-,N/A,,Clear,190,2013-07-23 22:55:00
6:15 PM,91.4,62.6,38,29.87,10.0,SSW,5.8,-,N/A,,Clear,200,2013-07-23 23:15:00
6:35 PM,91.4,64.4,41,29.85,10.0,South,5.8,-,N/A,,Clear,190,2013-07-23 23:35:00
6:55 PM,89.6,64.4,43,29.84,10.0,South,5.8,-,N/A,,Clear,190,2013-07-23 23:55:00
7:15 PM,89.6,64.4,43,29.84,10.0,South,5.8,-,N/A,,Clear,190,2013-07-24 00:15:00
7:35 PM,89.6,64.4,43,29.86,10.0,Calm,Calm,-,N/A,,Clear,0,2013-07-24 00:35:00
7:55 PM,87.8,64.4,46,29.87,10.0,Calm,Calm,-,N/A,,Clear,0,2013-07-24 00:55:00
8:15 PM,87.8,64.4,46,29.87,10.0,Calm,Calm,-,N/A,,Clear,0,2013-07-24 01:15:00
8:35 PM,86.0,66.2,51,29.88,10.0,Calm,Calm,-,N/A,,Clear,0,2013-07-24 01:35:00
8:55 PM,82.4,66.2,58,29.87,10.0,Calm,Calm,-,N/A,,Clear,0,2013-07-24 01:55:00
9:15 PM,82.4,66.2,58,29.86,10.0,Calm,Calm,-,N/A,,Clear,0,2013-07-24 02:15:00
9:35 PM,80.6,66.2,61,29.86,10.0,South,3.5,-,N/A,,Clear,190,2013-07-24 02:35:00
9:55 PM,82.4,66.2,58,29.87,10.0,South,4.6,-,N/A,,Clear,170,2013-07-24 02:55:00
10:15 PM,82.4,68.0,62,29.89,10.0,Calm,Calm,-,N/A,,Clear,0,2013-07-24 03:15:00
10:35 PM,80.6,68.0,65,29.90,10.0,Calm,Calm,-,N/A,,Clear,0,2013-07-24 03:35:00
10:55 PM,78.8,68.0,69,29.90,10.0,Calm,Calm,-,N/A,,Clear,0,2013-07-24 03:55:00
11:15 PM,80.6,68.0,65,29.90,10.0,South,4.6,-,N/A,,Clear,180,2013-07-24 04:15:00
11:35 PM,80.6,68.0,65,29.90,10.0,South,5.8,-,N/A,,Clear,180,2013-07-24 04:35:00
11:55 PM,80.6,68.0,65,29.89,10.0,South,6.9,-,N/A,,Clear,180,2013-07-24 04:55:00